Find Starlink 36397

NORAD ID: 67538 Int'l Des: 2026-014 Owner: SPXS Country: US Constellation: starlink operational
LEOCIRCULARRETROGRADE

Aktuelle Ansicht

3D-Globus wird geladen...

Über Starlink 36397

Beschreibung wird geladen...

Nächste Überflüge

Passes for default location (London). Set your location on the main map for personalized predictions.

Höhenverlauf

Loading altitude history...

Zweizeiliger Elementsatz

1 67538U 26014G 26146.26144866 .00047139 00000-0 14532-2 0 9999
2 67538 97.2857 33.3217 0002462 97.1171 263.0352 15.33446529 20676
Epoch: 26. Mai 2026 • Age: 10 hours

Aktueller Status

Höhe 477.2 km
Geschwindigkeit 7.64 km/s
Subsatellitenpunkt 81.60°N, 147.73°E
Startdatum 22. Jan. 2026
Alter 0.3 years
Typ internet

Technische Details

Klassifizierung Payload
Masse 575.00 kg
Trockenmasse 530.00 kg
Gesamtmasse 575.00 kg
Länge 0.30 m
Durchmesser 4.10 m
Spannweite 29.00 m
Form Box + pan
Hersteller SPXS
Bus-Typ Starlink V2MO
Phasenstatus In Orbit
Besitzer/Staat SPXS/US

Most Searched